This is the latest recevied weather packets stored in our database for station/object SQ8SW-4. If no packets are shown the sender has not sent any weather packets the latest 10 day(s).
| Time | Temp. | Humidity | Pressure | Rain* | Wind** | Luminosity | Snow |
|---|---|---|---|---|---|---|---|
| 1777224126 | 11.67° C | 35% | 992 hPa | - | - | - | - |
| 1777223224 | 11.67° C | 34% | 992 hPa | - | - | - | - |
| 1777222322 | 12.22° C | 36% | 992 hPa | - | - | - | - |
| 1777221419 | 13.89° C | 32% | 992 hPa | - | - | - | - |
| 1777220517 | 13.89° C | 30% | 992 hPa | - | - | - | - |
| 1777219615 | 12.22° C | 29% | 992 hPa | - | - | - | - |
| 1777218713 | 11.67° C | 35% | 992 hPa | - | - | - | - |
| 1777217810 | 12.22° C | 35% | 992 hPa | - | - | - | - |
| 1777216908 | 11.67° C | 34% | 992 hPa | - | - | - | - |
| 1777216006 | 11.67° C | 35% | 991 hPa | - | - | - | - |
| 1777215104 | 11.67° C | 36% | 991 hPa | - | - | - | - |
| 1777214201 | 11.67° C | 38% | 991 hPa | - | - | - | - |
| 1777213299 | 11.67° C | 38% | 991 hPa | - | - | - | - |
| 1777212397 | 11.11° C | 38% | 991 hPa | - | - | - | - |
| 1777211495 | 11.11° C | 41% | 991 hPa | - | - | - | - |
| 1777210593 | 11.11° C | 38% | 991 hPa | - | - | - | - |
| 1777209690 | 11.11° C | 36% | 991 hPa | - | - | - | - |
| 1777208788 | 11.11° C | 36% | 991 hPa | - | - | - | - |
| 1777207886 | 11.11° C | 42% | 991 hPa | - | - | - | - |
| 1777206984 | 11.11° C | 43% | 991 hPa | - | - | - | - |
| 1777206081 | 11.11° C | 41% | 990 hPa | - | - | - | - |
| 1777205179 | 11.11° C | 40% | 990 hPa | - | - | - | - |
| 1777204277 | 11.11° C | 40% | 990 hPa | - | - | - | - |
| 1777203375 | 10.56° C | 41% | 990 hPa | - | - | - | - |
| 1777202473 | 10° C | 44% | 990 hPa | - | - | - | - |
* Rain since midnight (hover to see other rain measurements)
** Current wind speed in m/s (hover to see current wind gust speed)